QPF
0.08 0.16 0.26 0.01 0.00 0.00 0.00 0.00 0.00 0.00 0.00 0.00 0.00 0.00 0.00 0.00 0.00 0.00 0.00 0.00 0.00 0.00 0.00 0.00 0.00 0.00 0.00 0.00 0.01 0.02 0.00 0.00 0.00 0.00 0.00 0.00 0.00 0.00 0.00 0.00 0.00 0.00 0.00
0.03 0.02 0.02 0.01 0.00 0.00 0.00 0.00 0.00 0.00 0.00 0.00 0.00 0.00 0.00 0.00 0.00 0.00 0.00 0.00 0.00 0.00 0.00 0.00 0.00 0.00 0.00 0.00 0.00 0.00 0.00 0.00 0.00 0.00 0.00 0.00 0.00 0.01 0.01 0.00 0.00 0.00 0.00
0.00 0.01 0.01 0.00 0.00 0.00 0.00 0.00 0.00 0.00 0.00 0.00 0.00 0.00 0.00 0.00 0.00 0.00 0.00 0.00 0.00 0.00 0.00 0.00 0.00 0.00 0.00 0.00 0.00 0.00 0.00 0.00 0.00 0.00 0.00 0.00 0.03 0.04 0.01 0.00 0.00 0.00 0.00
0.00 0.01 0.01 0.01 0.00 0.00 0.00 0.00 0.00 0.00 0.00 0.00 0.00 0.00 0.00 0.00 0.00 0.00 0.00 0.00 0.00 0.00 0.00 0.00 0.00 0.00 0.00 0.00 0.00 0.00 0.00 0.00 0.00 0.00 0.00 0.00 0.00 0.00 0.00 0.00 0.00 0.00 0.00
0.00 0.01 0.03 0.00 0.00 0.00 0.00 0.00 0.00 0.00 0.00 0.00 0.00 0.00 0.00 0.00 0.00 0.00 0.00 0.00 0.00 0.00 0.00 0.00 0.00 0.00 0.00 0.00 0.00 0.00 0.00 0.00 0.00 0.00 0.00 0.00 0.00 0.00 0.00 0.00 0.00 0.00 0.00
0.00 0.02 0.02 0.03 0.01 0.01 0.00 0.00 0.00 0.00 0.00 0.00 0.00 0.00 0.00 0.00 0.00 0.00 0.00 0.00 0.00 0.00 0.00 0.00 0.00 0.00 0.00 0.00 0.00 0.00 0.00 0.00 0.00 0.00 0.00 0.00 0.00 0.00 0.00 0.00 0.00 0.00 0.00
0.01 0.02 0.06 0.13 0.17 0.14 0.04 0.00 0.00 0.01 0.00 0.00 0.00 0.00 0.00 0.00 0.00 0.00 0.00 0.00 0.00 0.00 0.00 0.00 0.00 0.00 0.00 0.00 0.00 0.00 0.00 0.00 0.00 0.00 0.00 0.00 0.00 0.00 0.00 0.00 0.00 0.00 0.00
0.02 0.05 0.21 0.35 0.33 0.39 0.32 0.09 0.01 0.03 0.00 0.00 0.00 0.00 0.00 0.00 0.00 0.00 0.00 0.00 0.00 0.00 0.00 0.00 0.00 0.00 0.00 0.00 0.00 0.00 0.00 0.00 0.00 0.00 0.00 0.00 0.00 0.00 0.00 0.00 0.00 0.01 0.00
0.04 0.11 0.22 0.34 0.33 0.39 0.50 0.46 0.15 0.06 0.01 0.00 0.00 0.00 0.00 0.00 0.00 0.00 0.00 0.00 0.00 0.00 0.00 0.00 0.00 0.00 0.00 0.00 0.00 0.00 0.00 0.00 0.00 0.00 0.00 0.00 0.00 0.00 0.00 0.00 0.00 0.00 0.00
0.05 0.03 0.06 0.16 0.21 0.27 0.86 1.66 1.01 0.41 0.18 0.11 0.02 0.00 0.00 0.00 0.00 0.00 0.00 0.00 0.00 0.00 0.00 0.00 0.00 0.00 0.00 0.00 0.00 0.00 0.00 0.00 0.00 0.00 0.00 0.00 0.00 0.00 0.00 0.00 0.00 0.00 0.00
0.00 0.00 0.00 0.02 0.47 0.38 0.52 1.00 1.05 0.77 0.30 0.21 0.08 0.04 0.01 0.00 0.00 0.00 0.00 0.00 0.00 0.00 0.00 0.00 0.00 0.00 0.00 0.00 0.00 0.00 0.00 0.00 0.00 0.00 0.00 0.00 0.00 0.00 0.00 0.00 0.00 0.00 0.00
0.00 0.00 0.00 0.00 0.00 0.08 0.22 0.18 0.31 0.62 0.46 0.16 0.13 0.04 0.00 0.00 0.00 0.00 0.00 0.00 0.00 0.00 0.00 0.00 0.00 0.00 0.00 0.00 0.00 0.00 0.00 0.00 0.00 0.00 0.00 0.00 0.00 0.00 0.00 0.00 0.00 0.00 0.00
0.00 0.00 0.00 0.00 0.00 0.00 0.02 0.13 0.08 0.06 0.08 0.05 0.01 0.01 0.01 0.01 0.00 0.00 0.00 0.00 0.00 0.00 0.00 0.00 0.00 0.00 0.00 0.00 0.00 0.00 0.00 0.00 0.00 0.00 0.00 0.00 0.00 0.00 0.00 0.00 0.00 0.00 0.00
0.00 0.00 0.01 0.01 0.01 0.01 0.00 0.01 0.01 0.02 0.02 0.02 0.00 0.01 0.04 0.03 0.00 0.00 0.00 0.00 0.00 0.00 0.00 0.00 0.00 0.00 0.00 0.00 0.00 0.00 0.00 0.00 0.00 0.00 0.00 0.00 0.00 0.00 0.00 0.00 0.00 0.00 0.00
0.00 0.00 0.01 0.03 0.03 0.02 0.00 0.00 0.00 0.00 0.01 0.01 0.01 0.01 0.04 0.04 0.02 0.00 0.00 0.00 0.00 0.00 0.00 0.00 0.00 0.00 0.00 0.00 0.00 0.00 0.00 0.00 0.00 0.00 0.00 0.00 0.00 0.00 0.00 0.00 0.00 0.00 0.00
0.00 0.00 0.00 0.00 0.00 0.00 0.00 0.00 0.00 0.01 0.01 0.01 0.03 0.03 0.01 0.01 0.00 0.00 0.00 0.00 0.00 0.00 0.00 0.00 0.00 0.00 0.00 0.00 0.00 0.00 0.00 0.00 0.00 0.00 0.00 0.00 0.00 0.00 0.00 0.00 0.00 0.00 0.00
0.00 0.00 0.00 0.00 0.00 0.00 0.00 0.00 0.00 0.00 0.00 0.00 0.01 0.03 0.01 0.00 0.00 0.00 0.00 0.00 0.00 0.00 0.00 0.00 0.00 0.00 0.00 0.00 0.00 0.00 0.00 0.00 0.00 0.00 0.00 0.00 0.00 0.00 0.00 0.00 0.00 0.00 0.00
0.00 0.00 0.00 0.00 0.00 0.00 0.00 0.00 0.00 0.00 0.00 0.00 0.00 0.01 0.01 0.00 0.00 0.00 0.00 0.00 0.00 0.00 0.00 0.00 0.00 0.00 0.00 0.00 0.00 0.00 0.00 0.00 0.00 0.00 0.00 0.00 0.00 0.00 0.00 0.00 0.00 0.00 0.00
0.00 0.00 0.00 0.00 0.00 0.00 0.00 0.00 0.00 0.00 0.00 0.00 0.00 0.01 0.01 0.02 0.01 0.00 0.00 0.00 0.00 0.00 0.00 0.00 0.00 0.00 0.00 0.00 0.00 0.00 0.00 0.00 0.00 0.00 0.00 0.00 0.00 0.00 0.00 0.00 0.00 0.00 0.00
0.00 0.00 0.00 0.00 0.00 0.00 0.00 0.00 0.00 0.00 0.00 0.00 0.00 0.00 0.00 0.00 0.00 0.00 0.00 0.00 0.00 0.00 0.00 0.00 0.00 0.00 0.00 0.00 0.00 0.00 0.00 0.00 0.00 0.00 0.00 0.00 0.00 0.00 0.00 0.00 0.00 0.00 0.00
0.00 0.00 0.00 0.00 0.00 0.00 0.00 0.00 0.00 0.00 0.00 0.00 0.00 0.00 0.00 0.00 0.00 0.00 0.00 0.00 0.00 0.00 0.00 0.00 0.00 0.00 0.00 0.00 0.00 0.00 0.00 0.00 0.00 0.00 0.00 0.00 0.00 0.00 0.00 0.00 0.00 0.00 0.00
0.00 0.00 0.00 0.00 0.00 0.00 0.00 0.01 0.01 0.02 0.05 0.06 0.05 0.02 0.00 0.00 0.00 0.00 0.00 0.00 0.00 0.00 0.00 0.00 0.00 0.00 0.00 0.00 0.00 0.00 0.00 0.00 0.00 0.00 0.00 0.00 0.00 0.00 0.00 0.00 0.00 0.00 0.00
0.00 0.00 0.00 0.00 0.00 0.00 0.00 0.00 0.00 0.00 0.00 0.00 0.02 0.01 0.00 0.00 0.00 0.00 0.00 0.00 0.00 0.00 0.00 0.00 0.00 0.00 0.00 0.00 0.00 0.00 0.00 0.00 0.00 0.00 0.00 0.00 0.00 0.00 0.00 0.00 0.00 0.00 0.00
0.01 0.00 0.00 0.00 0.00 0.00 0.00 0.00 0.00 0.00 0.00 0.00 0.00 0.00 0.00 0.00 0.00 0.00 0.00 0.00 0.00 0.00 0.00 0.00 0.00 0.00 0.00 0.00 0.00 0.00 0.00 0.00 0.00 0.00 0.00 0.00 0.00 0.00 0.00 0.00 0.00 0.00 0.00
0.02 0.04 0.02 0.01 0.00 0.00 0.00 0.00 0.00 0.00 0.00 0.00 0.01 0.00 0.00 0.00 0.00 0.00 0.00 0.00 0.00 0.00 0.00 0.00 0.00 0.00 0.00 0.00 0.00 0.00 0.00 0.00 0.00 0.00 0.00 0.00 0.00 0.00 0.00 0.00 0.00 0.00 0.00
0.09 0.08 0.06 0.06 0.06 0.04 0.01 0.00 0.00 0.00 0.00 0.00 0.00 0.00 0.00 0.00 0.01 0.01 0.02 0.01 0.00 0.00 0.00 0.00 0.00 0.00 0.00 0.00 0.00 0.00 0.00 0.00 0.00 0.00 0.00 0.00 0.00 0.00 0.00 0.00 0.00 0.00 0.00
MSLP
1013.87 1014.17 1014.66 1014.66 1014.84 1014.85 1015.14 1015.24 1015.44 1015.32 1015.36 1015.38 1015.40 1015.64 1015.85 1015.96 1016.25 1016.41 1016.49 1016.70 1016.75 1016.73 1016.46 1016.33 1016.26 1015.93 1016.04 1015.96 1015.91 1016.06 1016.72 1017.49 1019.07 1020.17 1020.54 1020.91 1021.07 1021.07 1021.16 1021.26 1021.57 1021.59 1021.54
1013.77 1014.08 1014.36 1014.18 1014.55 1014.86 1015.14 1015.32 1015.40 1015.31 1015.44 1015.50 1015.58 1015.88 1015.98 1016.11 1016.52 1016.62 1016.89 1017.05 1017.15 1017.05 1016.89 1016.68 1016.62 1016.41 1016.47 1016.39 1016.49 1016.78 1017.21 1017.67 1018.62 1019.91 1020.81 1021.25 1021.50 1021.63 1021.67 1021.66 1021.91 1021.97 1022.02
1013.55 1014.00 1014.34 1014.41 1014.42 1014.87 1015.06 1015.20 1015.31 1015.44 1015.66 1015.92 1015.98 1016.23 1016.46 1016.48 1016.73 1016.91 1017.09 1017.41 1017.61 1017.70 1017.47 1017.24 1017.28 1017.02 1017.02 1017.09 1017.26 1017.46 1017.88 1018.36 1018.89 1019.64 1020.70 1021.35 1021.76 1021.84 1022.04 1021.98 1022.17 1022.26 1022.22
1013.42 1013.86 1014.26 1014.32 1014.33 1014.74 1014.97 1015.14 1015.29 1015.52 1015.79 1016.17 1016.20 1016.39 1016.64 1016.77 1016.98 1017.00 1017.32 1017.75 1017.98 1018.02 1017.85 1017.73 1017.76 1017.62 1017.59 1017.67 1017.99 1018.30 1018.52 1018.98 1019.47 1020.05 1020.73 1021.26 1021.59 1021.90 1021.94 1022.14 1022.33 1022.29 1022.32
1013.11 1013.64 1013.88 1013.94 1014.14 1014.59 1014.87 1015.20 1015.41 1015.51 1015.86 1016.08 1016.34 1016.62 1016.73 1016.92 1017.17 1017.28 1017.47 1017.86 1018.17 1018.40 1018.48 1018.38 1018.21 1018.10 1017.98 1017.91 1018.25 1018.85 1019.16 1019.53 1019.97 1020.49 1020.86 1021.21 1021.50 1021.85 1021.96 1021.99 1022.28 1022.42 1022.44
1012.86 1013.40 1013.63 1014.03 1014.34 1014.74 1014.91 1015.14 1015.45 1015.53 1015.88 1016.11 1016.43 1016.70 1017.10 1017.48 1017.54 1017.43 1017.52 1017.83 1018.05 1018.46 1018.93 1018.93 1018.87 1018.72 1018.61 1018.64 1018.74 1019.03 1019.33 1019.68 1020.11 1020.62 1020.98 1021.26 1021.40 1021.43 1021.53 1021.82 1021.98 1022.34 1022.49
1012.96 1013.23 1013.54 1013.94 1014.47 1014.64 1015.02 1015.32 1015.51 1015.67 1015.98 1016.33 1016.72 1016.86 1017.29 1017.79 1017.77 1017.62 1017.66 1017.81 1018.18 1018.49 1018.79 1019.13 1019.30 1019.39 1019.26 1019.25 1019.28 1019.41 1019.65 1019.87 1019.94 1020.11 1020.73 1021.05 1021.25 1021.20 1021.31 1021.63 1021.71 1021.72 1021.85
1013.15 1013.64 1013.75 1014.22 1014.70 1015.10 1015.12 1015.30 1015.44 1015.50 1015.93 1016.38 1016.77 1017.09 1017.47 1017.68 1017.85 1017.90 1017.99 1018.06 1018.32 1018.75 1018.99 1019.18 1019.50 1019.72 1019.68 1019.68 1019.89 1020.08 1020.16 1020.21 1020.20 1020.38 1020.63 1020.88 1021.01 1020.98 1020.95 1021.08 1021.17 1021.37 1021.49
1013.26 1013.73 1014.01 1014.45 1014.91 1015.38 1015.62 1015.11 1015.28 1015.21 1015.60 1016.04 1016.58 1017.03 1017.49 1017.87 1017.86 1018.13 1018.26 1018.49 1018.68 1019.05 1019.32 1019.54 1019.74 1019.95 1020.03 1020.03 1020.19 1020.58 1020.68 1020.63 1020.49 1020.39 1020.50 1020.66 1020.77 1020.73 1020.74 1020.85 1021.51 1021.53 1021.77
1013.54 1013.88 1014.16 1014.80 1014.99 1015.04 1015.69 1014.47 1016.11 1015.38 1015.79 1015.88 1016.43 1016.88 1017.19 1017.73 1018.00 1018.19 1018.37 1018.63 1019.02 1019.40 1019.66 1019.78 1019.98 1020.07 1020.12 1020.09 1020.46 1020.76 1021.03 1020.81 1020.66 1020.70 1020.84 1020.98 1021.04 1021.03 1020.91 1021.09 1021.49 1021.78 1021.93
1013.59 1013.96 1014.12 1014.57 1014.73 1014.91 1014.77 1015.17 1015.00 1014.28 1015.87 1016.30 1016.58 1016.88 1017.12 1017.38 1017.95 1018.27 1018.34 1018.35 1018.76 1019.35 1019.77 1020.05 1020.12 1020.20 1020.23 1020.26 1020.29 1020.47 1020.71 1020.51 1020.64 1020.78 1020.96 1021.33 1021.58 1021.44 1021.32 1021.09 1021.15 1021.49 1021.79
1013.74 1014.15 1014.34 1014.37 1014.75 1015.08 1015.26 1015.35 1015.58 1015.63 1015.77 1016.09 1016.59 1016.75 1016.83 1017.22 1017.67 1018.22 1018.38 1018.31 1018.66 1019.12 1019.58 1019.85 1020.01 1020.08 1020.18 1020.15 1020.22 1020.32 1020.34 1020.36 1020.47 1020.87 1020.91 1021.14 1021.44 1021.51 1021.48 1021.08 1020.86 1021.09 1021.29
1014.03 1014.42 1014.73 1014.95 1015.23 1015.49 1015.60 1015.31 1015.28 1015.53 1015.81 1016.15 1016.45 1016.47 1016.70 1017.22 1017.73 1018.14 1018.43 1018.53 1018.61 1018.91 1019.24 1019.54 1019.85 1020.04 1020.09 1020.10 1020.20 1020.23 1020.29 1020.34 1020.32 1020.63 1020.90 1021.10 1020.84 1020.69 1020.82 1020.90 1020.88 1020.88 1021.16
1014.35 1014.70 1015.02 1015.30 1015.62 1015.73 1015.79 1015.56 1015.47 1015.46 1015.57 1015.58 1015.89 1016.21 1016.53 1017.01 1017.67 1017.97 1018.34 1018.58 1018.67 1018.87 1019.15 1019.58 1019.70 1019.98 1020.00 1020.02 1020.01 1020.08 1020.20 1020.21 1020.36 1020.74 1020.90 1020.61 1020.60 1020.76 1020.97 1021.04 1021.09 1021.16 1021.44
1014.50 1014.91 1015.22 1015.52 1015.84 1016.18 1016.46 1016.41 1016.18 1015.86 1015.76 1015.59 1015.52 1015.66 1016.05 1016.64 1016.79 1017.11 1017.65 1018.22 1018.60 1018.84 1019.22 1019.63 1019.98 1020.06 1020.09 1020.16 1020.07 1020.09 1019.97 1020.16 1020.25 1020.32 1020.59 1020.69 1020.90 1020.94 1021.03 1020.97 1021.08 1021.26 1021.46
1014.53 1014.87 1015.05 1015.26 1015.56 1015.96 1016.39 1016.59 1016.55 1016.38 1016.11 1015.67 1015.64 1015.51 1015.92 1016.08 1016.14 1016.72 1017.20 1017.64 1018.08 1018.51 1019.15 1019.57 1019.66 1019.67 1019.73 1019.93 1019.94 1020.05 1020.04 1019.84 1020.14 1020.22 1020.51 1020.62 1021.07 1021.17 1021.21 1021.06 1021.16 1021.38 1021.64
1014.35 1014.59 1014.70 1014.86 1015.07 1015.40 1015.85 1016.17 1016.35 1016.43 1016.27 1015.95 1015.67 1015.67 1015.78 1015.81 1016.24 1016.64 1016.93 1017.23 1017.56 1018.09 1018.66 1018.99 1019.14 1019.17 1019.26 1019.28 1019.41 1019.56 1019.82 1019.53 1019.58 1019.97 1020.41 1020.49 1020.60 1020.87 1020.93 1021.04 1021.10 1021.25 1021.34
1014.02 1014.01 1014.12 1014.22 1014.44 1014.76 1015.02 1015.38 1015.69 1015.90 1015.95 1016.10 1016.14 1016.09 1016.13 1016.32 1016.60 1016.63 1016.77 1017.11 1017.88 1017.88 1018.12 1018.39 1018.51 1018.59 1018.55 1018.45 1018.46 1018.77 1019.03 1019.17 1019.48 1019.79 1020.09 1020.17 1020.35 1020.58 1020.76 1020.87 1020.86 1021.05 1021.16
1013.70 1013.72 1013.63 1013.74 1013.82 1014.09 1014.41 1014.66 1014.85 1015.05 1015.23 1015.48 1016.11 1016.37 1016.49 1016.75 1017.11 1016.96 1016.96 1017.00 1017.21 1017.38 1017.51 1017.68 1017.72 1017.70 1017.60 1017.43 1017.43 1017.91 1018.36 1018.94 1019.12 1019.43 1019.72 1019.86 1019.97 1020.27 1020.42 1020.68 1020.78 1020.78 1020.79
1013.04 1012.96 1013.09 1013.33 1013.52 1013.59 1013.70 1013.90 1014.03 1014.16 1014.37 1014.71 1015.26 1015.76 1016.44 1016.84 1016.75 1016.76 1016.71 1016.78 1016.82 1016.82 1016.59 1016.65 1016.76 1016.84 1016.88 1016.73 1016.97 1017.50 1018.00 1018.37 1018.69 1018.97 1019.11 1019.22 1019.30 1019.55 1019.90 1020.11 1020.28 1020.39 1020.49
1012.53 1012.67 1012.66 1012.85 1012.96 1012.96 1013.10 1013.18 1013.20 1013.30 1013.51 1013.77 1014.13 1014.47 1014.84 1015.38 1015.71 1015.86 1016.01 1016.07 1015.93 1015.86 1015.79 1015.70 1015.74 1015.77 1015.78 1015.90 1016.35 1016.78 1017.16 1017.56 1017.90 1018.15 1018.42 1018.65 1019.02 1019.43 1019.22 1019.17 1019.59 1019.83 1020.01
1011.88 1012.06 1012.14 1012.29 1012.34 1012.42 1012.39 1012.33 1012.34 1012.37 1012.38 1012.74 1013.16 1013.50 1014.20 1014.52 1014.62 1014.69 1014.70 1014.74 1014.76 1014.77 1014.69 1014.76 1014.66 1014.64 1014.61 1014.98 1015.49 1016.08 1016.55 1016.97 1017.29 1017.55 1017.78 1018.06 1018.41 1018.59 1018.81 1018.96 1019.15 1019.43 1019.64
1011.22 1011.40 1011.52 1011.58 1011.69 1011.88 1011.84 1011.79 1011.61 1011.35 1011.09 1011.24 1011.99 1012.58 1013.47 1013.56 1013.54 1013.40 1013.51 1013.67 1013.92 1013.95 1013.78 1013.99 1013.91 1013.77 1014.08 1014.34 1014.64 1015.16 1015.78 1016.23 1016.57 1016.74 1017.11 1017.56 1017.85 1018.13 1018.44 1018.76 1018.97 1019.18 1019.22
1010.73 1010.83 1010.91 1010.99 1011.09 1011.24 1011.47 1011.56 1011.64 1011.46 1011.18 1011.41 1011.73 1011.90 1012.12 1012.62 1013.32 1013.42 1013.43 1013.17 1013.07 1013.14 1013.04 1013.07 1013.31 1013.47 1013.76 1014.10 1014.53 1015.22 1015.54 1015.94 1016.23 1016.53 1016.58 1017.19 1017.73 1017.99 1018.21 1018.48 1018.70 1018.81 1018.96
1010.88 1010.51 1010.53 1010.56 1010.67 1010.93 1011.03 1011.22 1011.38 1011.40 1011.45 1011.39 1011.57 1012.19 1012.69 1012.75 1012.86 1013.47 1013.27 1012.74 1013.08 1012.91 1012.58 1012.65 1012.85 1013.16 1013.45 1013.99 1014.94 1015.49 1016.00 1016.11 1016.22 1016.48 1016.86 1017.25 1017.78 1017.94 1018.17 1018.35 1018.39 1018.40 1018.44
1011.10 1010.61 1010.55 1010.48 1010.90 1010.91 1010.93 1010.94 1011.21 1011.47 1011.38 1011.30 1011.43 1011.98 1012.30 1012.93 1013.05 1013.16 1013.24 1013.67 1013.85 1014.33 1013.62 1013.13 1012.99 1013.05 1014.11 1014.79 1015.28 1015.85 1016.16 1016.48 1016.82 1017.08 1017.34 1017.62 1017.79 1018.02 1018.23 1018.23 1018.09 1018.16 1018.14
Thickness
5746 5739 5734 5734 5732 5734 5731 5731 5731 5734 5736 5736 5737 5735 5733 5733 5732 5730 5730 5727 5727 5729 5733 5734 5734 5738 5735 5735 5734 5731 5724 5715 5701 5692 5690 5685 5683 5682 5681 5679 5677 5677 5676
5748 5742 5738 5740 5735 5733 5731 5730 5731 5732 5733 5733 5734 5731 5731 5731 5728 5727 5724 5723 5723 5725 5728 5730 5730 5732 5730 5731 5728 5724 5720 5714 5705 5693 5686 5682 5678 5676 5675 5674 5671 5669 5669
5751 5745 5739 5738 5737 5732 5730 5729 5731 5730 5729 5728 5729 5726 5725 5726 5724 5723 5721 5718 5717 5717 5720 5723 5722 5723 5722 5721 5719 5716 5712 5708 5703 5696 5686 5679 5674 5673 5670 5669 5666 5663 5662
5751 5744 5737 5738 5738 5732 5731 5729 5728 5728 5725 5722 5723 5723 5722 5721 5720 5720 5717 5713 5711 5711 5714 5715 5713 5713 5713 5713 5709 5705 5704 5700 5696 5690 5683 5678 5673 5669 5668 5665 5661 5660 5657
5753 5745 5739 5740 5739 5733 5731 5728 5726 5725 5721 5719 5718 5717 5718 5716 5714 5714 5713 5709 5706 5704 5704 5705 5706 5708 5707 5708 5704 5698 5694 5691 5687 5682 5678 5675 5671 5666 5663 5661 5656 5652 5651
5754 5746 5742 5737 5732 5727 5725 5723 5721 5721 5718 5716 5715 5714 5710 5708 5707 5710 5710 5706 5704 5701 5696 5696 5697 5699 5700 5698 5697 5694 5690 5685 5681 5675 5672 5669 5667 5664 5662 5657 5653 5647 5643
5747 5744 5738 5732 5724 5720 5718 5715 5715 5715 5713 5710 5707 5707 5704 5700 5701 5704 5706 5703 5699 5697 5693 5691 5690 5689 5690 5689 5689 5687 5684 5681 5680 5677 5669 5665 5661 5659 5655 5650 5648 5645 5639
5740 5735 5732 5722 5716 5708 5706 5706 5708 5710 5706 5704 5702 5700 5697 5698 5697 5697 5698 5697 5694 5690 5688 5687 5683 5680 5681 5681 5678 5675 5674 5672 5670 5667 5662 5658 5655 5652 5649 5645 5642 5639 5634
5736 5727 5723 5716 5709 5703 5703 5705 5703 5707 5706 5704 5699 5696 5693 5691 5693 5690 5690 5689 5686 5684 5681 5680 5678 5675 5674 5674 5670 5666 5662 5661 5660 5659 5656 5652 5648 5645 5643 5639 5629 5626 5620
5729 5723 5718 5709 5703 5701 5698 5682 5688 5698 5694 5696 5695 5693 5691 5688 5687 5685 5684 5683 5679 5675 5672 5671 5669 5668 5667 5667 5662 5658 5654 5653 5652 5648 5645 5641 5636 5633 5631 5627 5620 5614 5608
5725 5719 5716 5709 5704 5700 5701 5694 5694 5696 5688 5685 5685 5686 5687 5686 5682 5681 5680 5680 5676 5670 5666 5663 5661 5661 5662 5661 5658 5653 5649 5647 5643 5639 5635 5629 5624 5620 5620 5618 5614 5607 5598
5719 5713 5710 5707 5703 5697 5690 5691 5687 5686 5684 5680 5678 5679 5683 5682 5678 5675 5675 5675 5672 5666 5662 5659 5657 5656 5654 5653 5650 5646 5644 5642 5638 5631 5628 5623 5616 5611 5607 5607 5604 5599 5594
5714 5706 5701 5696 5692 5686 5685 5688 5686 5684 5681 5679 5677 5678 5679 5676 5672 5669 5668 5668 5668 5663 5659 5656 5651 5648 5645 5643 5640 5638 5635 5631 5629 5624 5618 5613 5611 5609 5604 5600 5596 5593 5586
5705 5701 5695 5689 5685 5682 5682 5682 5683 5683 5681 5681 5678 5676 5676 5674 5667 5665 5663 5660 5658 5655 5651 5646 5644 5640 5638 5635 5632 5629 5625 5622 5618 5613 5609 5607 5604 5599 5593 5589 5584 5580 5574
5697 5693 5690 5685 5679 5674 5671 5671 5673 5675 5677 5679 5679 5681 5679 5673 5669 5668 5662 5656 5650 5647 5642 5637 5632 5630 5629 5624 5621 5619 5618 5614 5611 5607 5601 5597 5592 5588 5584 5581 5576 5572 5567
5690 5686 5684 5681 5677 5672 5669 5667 5664 5666 5668 5673 5674 5677 5673 5671 5671 5663 5658 5652 5647 5642 5634 5628 5625 5623 5621 5617 5614 5611 5607 5606 5601 5597 5591 5587 5582 5578 5574 5570 5566 5562 5555
5684 5682 5682 5680 5676 5671 5667 5666 5665 5661 5660 5663 5665 5666 5666 5664 5658 5655 5650 5646 5641 5635 5628 5623 5620 5617 5614 5612 5611 5607 5600 5599 5597 5589 5583 5579 5575 5569 5566 5562 5559 5554 5549
5678 5679 5677 5676 5676 5672 5668 5665 5661 5659 5660 5657 5653 5653 5651 5649 5645 5642 5641 5638 5630 5626 5622 5617 5614 5612 5610 5609 5606 5602 5596 5592 5585 5579 5574 5571 5566 5562 5558 5553 5551 5546 5541
5672 5671 5672 5671 5672 5669 5665 5662 5659 5656 5655 5653 5645 5641 5637 5633 5629 5629 5628 5627 5622 5618 5614 5610 5607 5606 5605 5604 5601 5595 5589 5581 5576 5571 5565 5562 5558 5553 5549 5545 5542 5540 5537
5669 5669 5668 5664 5662 5662 5660 5657 5655 5653 5650 5647 5640 5635 5628 5622 5623 5620 5617 5614 5612 5611 5610 5607 5603 5600 5598 5597 5592 5585 5579 5574 5569 5565 5561 5557 5555 5550 5546 5541 5536 5532 5527
5662 5661 5661 5657 5655 5652 5652 5650 5649 5648 5644 5642 5636 5631 5626 5620 5615 5613 5609 5607 5606 5603 5601 5599 5597 5596 5594 5590 5584 5578 5572 5566 5563 5559 5553 5552 5546 5540 5539 5538 5532 5527 5522
5658 5656 5654 5651 5648 5643 5644 5643 5641 5639 5637 5633 5628 5623 5614 5613 5610 5608 5605 5602 5600 5596 5595 5593 5594 5593 5591 5587 5580 5572 5565 5560 5557 5553 5549 5546 5540 5537 5533 5530 5526 5520 5516
5654 5650 5647 5645 5642 5637 5633 5633 5632 5632 5634 5633 5624 5617 5607 5606 5605 5603 5599 5596 5592 5590 5589 5586 5586 5587 5584 5580 5576 5569 5562 5555 5551 5547 5543 5539 5534 5530 5525 5521 5516 5511 5507
5643 5639 5638 5635 5631 5627 5623 5619 5616 5614 5615 5613 5610 5607 5603 5596 5589 5587 5587 5590 5589 5586 5583 5580 5575 5576 5573 5569 5564 5556 5550 5545 5540 5538 5536 5531 5525 5521 5517 5512 5506 5502 5497
5629 5630 5626 5623 5620 5613 5610 5606 5603 5602 5600 5601 5598 5592 5585 5583 5581 5574 5576 5580 5576 5577 5576 5573 5570 5565 5562 5558 5550 5544 5536 5532 5529 5526 5522 5518 5513 5508 5504 5499 5496 5492 5489
5613 5617 5616 5614 5608 5604 5598 5599 5594 5590 5590 5589 5586 5580 5576 5571 5570 5567 5564 5558 5555 5551 5555 5556 5556 5553 5544 5539 5533 5528 5523 5519 5515 5511 5506 5502 5499 5494 5489 5487 5485 5481 5479